2024/02/15 00:00:00,28.1, 2.8
2024/02/15 00:10:00,28.0, 2.8
2024/02/15 00:20:00,27.9, 2.9
2024/02/15 00:30:00,27.9, 2.8
2024/02/15 00:40:00,27.9, 2.8
2024/02/15 00:50:00,28.0, 2.2
2024/02/15 01:00:00,27.9, 3.0
2024/02/15 01:10:00,27.8, 2.9
2024/02/15 01:20:00,27.7, 3.1
2024/02/15 01:30:00,27.5, 2.8
2024/02/15 01:40:00,27.4, 3.1
2024/02/15 01:50:00,27.3, 2.9
2024/02/15 02:00:00,27.4, 2.9
2024/02/15 02:10:00,27.2, 2.9
2024/02/15 02:20:00,27.1, 2.9
2024/02/15 02:30:00,27.2, 3.0
2024/02/15 02:40:00,27.3, 3.1
2024/02/15 02:50:00,27.1, 3.0
2024/02/15 03:00:00,26.9, 3.1
2024/02/15 03:10:00,26.7, 3.1
2024/02/15 03:20:00,26.6, 3.1
2024/02/15 03:30:00,26.5, 3.1
2024/02/15 03:40:00,26.6, 3.4
2024/02/15 03:50:00,26.0, 3.4
2024/02/15 04:00:00,25.7, 3.2
2024/02/15 04:10:00,25.8, 3.2
2024/02/15 04:20:00,25.9, 3.5
2024/02/15 04:30:00,25.9, 3.1
2024/02/15 04:40:00,25.8, 3.1
2024/02/15 04:50:00,25.8, 3.3
2024/02/15 05:00:00,25.8, 3.0
2024/02/15 05:10:00,25.8, 3.1
2024/02/15 05:20:00,25.9, 3.3
2024/02/15 05:30:00,25.7, 3.2
2024/02/15 05:40:00,25.7, 3.1
2024/02/15 05:50:00,25.6, 3.1
2024/02/15 06:00:00,25.6, 3.1
2024/02/15 06:10:00,25.6, 3.1
2024/02/15 06:20:00,25.6, 2.9
2024/02/15 06:30:00,25.6, 3.3
2024/02/15 06:40:00,25.5, 3.3
2024/02/15 06:50:00,25.6, 3.1
2024/02/15 07:00:00,25.6, 3.3
2024/02/15 07:10:00,25.6, 3.5
2024/02/15 07:20:00,25.6, 3.1
2024/02/15 07:30:00,25.6, 3.0
2024/02/15 07:40:00,25.6, 3.4
2024/02/15 07:50:00,25.5, 3.2
2024/02/15 08:00:00,25.6, 3.1
2024/02/15 08:10:00,25.6, 3.8
2024/02/15 08:20:00,25.7, 4.2
2024/02/15 08:30:00,25.9, 4.3
2024/02/15 08:40:00,25.8, 4.4
2024/02/15 08:50:00,25.7, 4.7
2024/02/15 09:00:00,25.8, 4.7
2024/02/15 09:10:00,25.6, 4.6
2024/02/15 09:20:00,25.6, 4.8
2024/02/15 09:30:00,25.6, 4.6
2024/02/15 09:40:00,25.7, 4.9
2024/02/15 09:50:00,25.6, 5.8
2024/02/15 10:00:00,25.8, 6.4
2024/02/15 10:10:00,25.4, 6.4
2024/02/15 10:20:00,25.2, 6.9
2024/02/15 10:30:00,25.4, 7.0
2024/02/15 10:40:00,25.3, 6.6
2024/02/15 10:50:00,25.3, 6.9
2024/02/15 11:00:00,25.5, 7.6
2024/02/15 11:10:00,25.4, 7.5
2024/02/15 11:20:00,25.0, 7.6
2024/02/15 11:30:00,24.9, 7.4
2024/02/15 11:40:00,24.8, 7.0
2024/02/15 11:50:00,24.7, 6.0
2024/02/15 12:00:00,24.7, 6.4
2024/02/15 12:10:00,24.5, 6.6
2024/02/15 12:20:00,24.7, 6.4
2024/02/15 12:30:00,24.6, 6.3
2024/02/15 12:40:00,24.5, 6.1
2024/02/15 12:50:00,24.6, 7.2
2024/02/15 13:00:00,24.5, 6.9
2024/02/15 13:10:00,24.2, 8.0
2024/02/15 13:20:00,24.1, 8.5
2024/02/15 13:30:00,24.3, 9.2
2024/02/15 13:40:00,24.2, 9.8
2024/02/15 13:50:00,23.9, 8.4
2024/02/15 14:00:00,23.8, 8.1
2024/02/15 14:10:00,23.7, 8.1
2024/02/15 14:20:00,23.4, 7.4
2024/02/15 14:30:00,23.0, 7.5
2024/02/15 14:40:00,22.7, 7.4
2024/02/15 14:50:00,22.5, 6.7
2024/02/15 15:00:00,22.5, 6.6
2024/02/15 15:10:00,22.7, 6.3
2024/02/15 15:20:00,22.5, 5.9
2024/02/15 15:30:00,22.4, 5.3
2024/02/15 15:40:00,22.4, 4.8
2024/02/15 15:50:00,22.7, 4.9
2024/02/15 16:00:00,22.4, 4.9
2024/02/15 16:10:00,22.4, 4.7
2024/02/15 16:20:00,22.5, 4.6
2024/02/15 16:30:00,22.5, 4.8
2024/02/15 16:40:00,22.5, 4.9
2024/02/15 16:50:00,22.4, 4.7
2024/02/15 17:00:00,22.2, 4.4
2024/02/15 17:10:00,22.2, 4.6
2024/02/15 17:20:00,22.2, 4.2
2024/02/15 17:30:00,21.8, 4.4
2024/02/15 17:40:00,22.2, 4.2
2024/02/15 17:50:00,22.0, 4.0
2024/02/15 18:00:00,21.0, 4.1
2024/02/15 18:10:00,20.8, 4.2
2024/02/15 18:20:00,20.9, 4.0
2024/02/15 18:30:00,---, 4.2
2024/02/15 18:40:00,17.8, 4.6
2024/02/15 18:50:00,18.9, 4.1
2024/02/15 19:00:00,19.6, 3.9
2024/02/15 19:10:00,19.0, 4.1
2024/02/15 19:20:00,19.1, 3.7
2024/02/15 19:30:00,18.8, 4.0
2024/02/15 19:40:00,19.2, 3.9
2024/02/15 19:50:00,18.0, 4.1
2024/02/15 20:00:00,---, 6.8
2024/02/15 20:10:00,---, 8.4
2024/02/15 20:20:00,---, 8.3
2024/02/15 20:30:00, 0.0, 7.5
2024/02/15 20:40:00,19.3, 7.4
2024/02/15 20:50:00,19.3, 7.0
2024/02/15 21:00:00,18.6, 6.9
2024/02/15 21:10:00,18.4, 6.2
2024/02/15 21:20:00,19.0, 5.7
2024/02/15 21:30:00,19.0, 5.3
2024/02/15 21:40:00,18.8, 5.1
2024/02/15 21:50:00,18.7, 5.0
2024/02/15 22:00:00,19.3, 5.0
2024/02/15 22:10:00,19.0, 4.2
2024/02/15 22:20:00,18.3, 4.1
2024/02/15 22:30:00,17.9, 3.5
2024/02/15 22:40:00,17.8, 3.3
2024/02/15 22:50:00,18.2, 3.1
2024/02/15 23:00:00,18.4, 2.9
2024/02/15 23:10:00,18.2, 2.5
2024/02/15 23:20:00,18.4, 2.1
2024/02/15 23:30:00,18.8, 2.4
2024/02/15 23:40:00,18.9, 1.6
2024/02/15 23:50:00,19.0, 1.6
